Location: Vancouver
(49.2500°N, 123.1330°W)
Time: 23:44:26
(UTC-07:00)

Cosmos 676 Rocket - Visible Passes

Search period start: 24 July 2014 00:00
Search period end: 03 August 2014 00:00
Orbit: 756 x 785 km, 74.0° (Epoch: 23 July)

Date Brightness Start Highest point End Pass type
(mag) Time Alt. Az. Time Alt. Az. Time Alt. Az.
24 Jul 6.7 04:21:13 10° ESE 04:23:19 12° E 04:25:24 10° ENE visible
26 Jul 5.7 04:47:39 10° SSE 04:52:19 32° ESE 04:56:58 10° NE visible
27 Jul 6.3 04:12:30 10° SE 04:16:20 21° E 04:20:11 10° NE visible
28 Jul 6.6 03:38:11 10° ESE 03:40:27 13° E 03:42:43 10° ENE visible
29 Jul 4.8 04:40:25 10° S 04:45:33 53° ESE 04:50:40 10° NNE visible
30 Jul 5.4 04:04:46 10° SSE 04:09:28 33° ESE 04:14:10 10° NE visible
31 Jul 6.0 03:29:35 10° SE 03:33:29 21° E 03:37:24 10° NE visible
01 Aug 6.4 02:55:10 10° ESE 02:57:36 13° E 03:00:02 10° ENE visible
01 Aug 4.1 04:33:35 10° SSW 04:38:53 85° ESE 04:44:10 10° NNE visible
02 Aug 4.6 03:58:17 14° S 04:02:43 55° ESE 04:07:50 10° NNE visible
